Weather History for El Centro, CA

Change the Weather History Date:

Sunday, November 18, 2012

  Actual Average Record
Temperature  
Mean Temperature 66 °F -  
Max Temperature 78 °F 75 °F 89 °F (2008)
Min Temperature 54 °F 50 °F 39 °F (2000)
Cooling Degree Days 1    
Growing Degree Days 16 (Base 50)    
Moisture  
Dew Point 46 °F    
Average Humidity 52    
Maximum Humidity 72    
Minimum Humidity 31    
Precipitation  
Precipitation 0.00 in - - ()
Sea Level Pressure  
Sea Level Pressure 30.09 in    
Wind  
Wind Speed 5 mph (West)    
Max Wind Speed 10 mph    
Max Gust Speed -    
Visibility 10 miles    
Events      
Averages and records for this station are not official NWS values.
T = Trace of Precipitation, MM = Missing Value Source: NWS Daily Summary

Daily Weather History Graph

Daily Weather History Graph

Search for Another Location

Airport:

Trip Planner

Search our weather history database for the weather conditions in past years. The results will help you decide how hot, cold, wet, or windy it might be!

Date:

Astronomy

Nov. 18, 2012 Rise Set
Actual Time 6:16 AM PST 4:39 PM PST
Civil Twilight 5:49 AM PST 5:05 PM PST
Nautical Twilight 5:19 AM PST 5:35 PM PST
Astronomical Twilight 4:50 AM PST 6:05 PM PST
Moon 10:49 AM PST (11/18) 9:59 PM PST (11/18)
Length of Visible Light 11h 16m
Length of Day
10h 23m
Waxing Crescent, 31% of the Moon is Illuminated
Nov 18
Waxing Crescent
Nov 20
First Quarter
Nov 28
Full
Dec 6
Last Quarter
Dec 13
New

Hourly Weather History & Observations

Time (PST) Temp. Dew Point Humidity Pressure Visibility Wind Dir Wind Speed Gust Speed Precip Events Conditions
12:56 AM 60.1 °F 45.0 °F 57% 30.06 in 10.0 mi West 9.2 mph - N/A   Clear
1:56 AM 59.0 °F 45.0 °F 60% 30.07 in 10.0 mi WNW 5.8 mph - N/A   Clear
2:56 AM 57.9 °F 45.0 °F 62% 30.05 in 10.0 mi West 4.6 mph - N/A   Clear
3:56 AM 55.9 °F 44.1 °F 64% 30.05 in 10.0 mi West 4.6 mph - N/A   Clear
4:56 AM 55.9 °F 46.0 °F 69% 30.06 in 10.0 mi West 8.1 mph - N/A   Clear
5:56 AM 54.0 °F 45.0 °F 72% 30.07 in 10.0 mi Calm Calm - N/A   Clear
6:56 AM 54.0 °F 45.0 °F 72% 30.09 in 10.0 mi SSE 6.9 mph - N/A   Clear
7:56 AM 64.0 °F 48.0 °F 56% 30.11 in 10.0 mi WSW 5.8 mph - N/A   Clear
8:56 AM 66.9 °F 48.9 °F 52% 30.12 in 10.0 mi SW 3.5 mph - N/A   Clear
9:56 AM 73.0 °F 48.9 °F 42% 30.12 in 10.0 mi Calm Calm - N/A   Clear
10:56 AM 73.9 °F 46.9 °F 38% 30.11 in 10.0 mi Calm Calm - N/A   Clear
11:56 AM 75.0 °F 46.9 °F 37% 30.09 in 10.0 mi Calm Calm - N/A   Clear
12:56 PM 77.0 °F 46.0 °F 33% 30.07 in 10.0 mi Calm Calm - N/A   Clear
1:56 PM 78.1 °F 45.0 °F 31% 30.06 in 10.0 mi NW 4.6 mph - N/A   Clear
2:56 PM 78.1 °F 46.0 °F 32% 30.06 in 10.0 mi ENE 5.8 mph - N/A   Clear
3:56 PM 75.9 °F 46.9 °F 36% 30.06 in 10.0 mi East 5.8 mph - N/A   Clear
4:56 PM 66.9 °F 50.0 °F 54% 30.06 in 10.0 mi East 6.9 mph - N/A   Clear
5:56 PM 66.0 °F 48.0 °F 52% 30.08 in 10.0 mi SE 6.9 mph - N/A   Clear
6:56 PM 64.0 °F 48.0 °F 56% 30.10 in 10.0 mi Variable 3.5 mph - N/A   Clear
7:56 PM 64.9 °F 46.0 °F 50% 30.11 in 10.0 mi WSW 10.4 mph - N/A   Clear
8:56 PM 63.0 °F 48.0 °F 58% 30.14 in 10.0 mi WSW 9.2 mph - N/A   Clear
9:56 PM 61.0 °F 45.0 °F 56% 30.14 in 10.0 mi West 4.6 mph - N/A   Clear
10:56 PM 55.9 °F 42.1 °F 60% 30.14 in 10.0 mi NW 3.5 mph - N/A   Clear
11:56 PM 59.0 °F 43.0 °F 55% 30.15 in 10.0 mi West 8.1 mph - N/A   Clear